Temperature
4 3 3 2 2 1 0 -1 -2 -4 -3 -2 -3 -3 -3 -3 -4 -4 -5 -5 -5 -5 -5 -5 -6 -6 -6 -5 -5 -5 -5 -5 -5 -5 -5 -5 -4 -4
3 3 2 2 1 1 -0 -1 -3 -4 -5 -4 -4 -5 -5 -5 -5 -6 -6 -6 -6 -6 -6 -6 -6 -6 -6 -6 -6 -6 -6 -6 -5 -5 -5 -5 -4 -4
2 2 1 1 0 -0 -1 -2 -3 -5 -6 -5 -5 -6 -6 -6 -6 -7 -7 -7 -7 -7 -7 -6 -6 -6 -6 -6 -6 -6 -6 -6 -6 -6 -5 -5 -5 -5
2 1 1 -0 -1 -2 -3 -4 -5 -6 -6 -7 -7 -7 -7 -7 -7 -7 -7 -7 -7 -7 -7 -7 -7 -7 -7 -7 -6 -6 -6 -6 -6 -6 -6 -6 -6 -5
1 0 -0 -1 -2 -3 -4 -5 -6 -7 -7 -8 -8 -7 -7 -8 -8 -7 -7 -7 -7 -7 -7 -7 -7 -7 -7 -7 -7 -7 -7 -7 -7 -6 -6 -6 -6 -6
0 -0 -1 -2 -3 -5 -6 -6 -7 -8 -8 -8 -8 -8 -8 -8 -8 -8 -8 -8 -8 -8 -7 -7 -7 -7 -7 -7 -7 -7 -7 -7 -7 -7 -7 -6 -6 -6
-0 -1 -2 -4 -5 -6 -7 -7 -7 -8 -8 -8 -9 -9 -8 -8 -8 -9 -9 -9 -8 -8 -8 -7 -7 -6 -6 -6 -6 -7 -7 -7 -7 -7 -6 -6 -6 -6
-1 -2 -4 -4 -6 -7 -7 -8 -8 -8 -9 -9 -9 -9 -9 -9 -9 -9 -9 -9 -9 -8 -8 -8 -7 -7 -6 -7 -7 -7 -7 -7 -7 -6 -6 -6 -6 -6
-2 -4 -5 -6 -7 -7 -8 -8 -8 -8 -9 -9 -9 -9 -9 -9 -9 -9 -9 -9 -9 -8 -9 -9 -7 -8 -7 -8 -7 -7 -7 -6 -6 -6 -6 -5 -5 -6
-4 -5 -6 -7 -7 -8 -8 -8 -8 -8 -8 -9 -9 -9 -9 -9 -9 -9 -9 -9 -9 -8 -8 -9 -8 -8 -8 -7 -6 -6 -6 -6 -6 -6 -6 -5 -5 -5
-5 -6 -7 -8 -8 -8 -8 -9 -9 -8 -8 -9 -9 -9 -8 -8 -9 -9 -9 -10 -10 -9 -8 -9 -9 -9 -8 -7 -6 -6 -6 -6 -5 -5 -5 -5 -5 -5
-5 -6 -7 -8 -8 -9 -9 -9 -9 -9 -9 -9 -8 -7 -7 -7 -8 -9 -9 -10 -10 -10 -8 -9 -10 -11 -10 -8 -7 -6 -6 -5 -5 -5 -4 -4 -4 -5
-7 -7 -7 -8 -9 -9 -9 -9 -9 -9 -9 -9 -8 -7 -7 -7 -7 -8 -8 -10 -10 -10 -8 -10 -10 -10 -11 -10 -8 -6 -6 -5 -5 -4 -4 -4 -5 -6
-8 -8 -8 -9 -9 -9 -9 -9 -9 -9 -9 -9 -8 -8 -7 -7 -7 -8 -8 -8 -9 -9 -8 -9 -10 -10 -11 -11 -10 -8 -6 -6 -5 -5 -5 -5 -5 -6
-9 -9 -9 -9 -9 -9 -9 -9 -9 -9 -9 -9 -9 -8 -8 -8 -8 -8 -7 -8 -8 -7 -7 -8 -9 -9 -10 -10 -10 -9 -8 -7 -6 -6 -6 -7 -6 -6
-8 -9 -9 -9 -9 -9 -9 -9 -9 -9 -9 -9 -9 -8 -8 -8 -8 -8 -8 -8 -8 -7 -6 -7 -8 -9 -9 -9 -9 -9 -8 -8 -7 -7 -7 -7 -6 -6
-10 -9 -9 -9 -9 -9 -9 -9 -9 -9 -9 -9 -8 -8 -8 -8 -8 -8 -8 -9 -9 -9 -7 -6 -7 -8 -8 -9 -9 -8 -7 -7 -7 -8 -8 -7 -6 -5
-10 -10 -10 -10 -10 -10 -9 -9 -9 -9 -9 -8 -8 -8 -8 -8 -8 -8 -8 -9 -9 -9 -8 -7 -8 -8 -8 -8 -8 -8 -8 -8 -8 -7 -8 -7 -7 -5
-10 -10 -10 -10 -10 -10 -10 -9 -9 -9 -9 -8 -8 -8 -8 -8 -8 -8 -8 -8 -9 -8 -8 -8 -8 -9 -9 -8 -8 -7 -8 -8 -7 -7 -7 -7 -7 -5
-10 -10 -10 -10 -10 -10 -10 -9 -9 -8 -8 -8 -8 -8 -8 -8 -8 -8 -8 -8 -9 -9 -8 -8 -8 -8 -8 -8 -8 -6 -6 -7 -7 -7 -7 -6 -6 -5
-10 -10 -10 -10 -10 -10 -9 -9 -9 -8 -8 -8 -8 -8 -8 -8 -8 -8 -8 -8 -8 -8 -8 -8 -7 -8 -8 -8 -8 -7 -6 -6 -7 -7 -7 -6 -6 -5
-10 -10 -10 -10 -10 -9 -9 -9 -8 -8 -8 -8 -8 -8 -8 -8 -8 -8 -8 -8 -8 -8 -8 -8 -7 -7 -7 -8 -8 -7 -7 -6 -5 -5 -5 -6 -6 -5
-10 -10 -10 -9 -9 -9 -9 -8 -8 -8 -8 -8 -8 -8 -8 -8 -8 -8 -8 -8 -8 -8 -8 -8 -7 -7 -7 -7 -7 -7 -7 -6 -6 -5 -5 -5 -5 -4
Wind_Speed
1 1 1 2 2 2 2 3 4 6 6 5 4 6 14 16 19 18 17 24 30 31 31 31 31 32 32 33 33 32 32 32 32 32 32 32 33 33
1 1 2 2 2 2 3 4 4 7 8 4 6 8 10 16 22 21 21 29 29 30 31 32 32 33 33 33 34 33 33 32 32 32 32 32 32 33
1 2 2 2 2 3 3 4 5 6 12 10 6 7 9 10 13 18 21 20 22 28 31 32 32 32 33 33 34 34 34 33 33 32 32 32 32 33
2 3 3 3 3 4 4 5 5 6 10 15 8 7 10 10 11 12 15 20 19 27 29 30 31 32 33 34 34 34 34 33 33 32 32 32 32 32
3 3 4 3 4 4 5 5 6 8 7 11 12 8 9 11 12 13 14 10 18 23 26 28 31 32 34 34 34 33 33 33 32 32 31 31 31 32
4 3 4 4 5 5 6 6 7 7 8 9 12 11 11 10 10 10 12 8 11 16 21 26 29 31 32 33 34 34 33 32 32 31 30 30 30 31
5 5 4 7 10 9 8 6 7 6 7 10 12 13 12 10 10 9 14 12 12 12 12 13 14 13 16 26 29 30 31 31 31 31 31 31 31 31
6 5 5 7 11 14 16 16 15 12 10 11 13 14 14 12 10 11 14 16 16 6 8 15 13 15 13 9 25 31 31 31 31 31 31 30 30 30
7 6 6 7 11 5 11 15 15 20 21 16 15 14 14 12 11 14 15 17 18 12 12 18 14 15 13 16 29 31 32 32 31 30 29 28 29 29
7 6 6 6 8 10 7 7 8 12 17 14 11 12 13 12 14 17 17 15 15 12 9 15 16 16 17 11 26 30 31 28 27 27 29 30 30 31
6 7 8 7 14 18 10 9 11 11 18 22 23 23 28 28 22 13 10 12 17 15 8 9 13 15 16 15 17 23 24 26 29 31 31 30 30 29
6 7 12 14 17 19 12 11 13 12 12 13 15 19 16 17 22 12 9 12 15 12 5 4 10 12 10 7 7 9 15 24 28 29 30 30 30 20
5 5 7 17 20 22 20 11 15 16 10 10 11 11 10 9 9 8 8 11 14 14 11 8 12 11 11 12 13 12 12 13 14 19 25 28 29 23
6 5 8 20 22 23 17 16 21 18 8 9 10 11 11 11 11 11 12 12 13 18 17 16 14 15 15 18 15 12 11 12 13 15 13 21 23 27
7 15 18 22 21 14 15 19 15 8 8 10 11 11 9 10 11 11 12 12 14 15 14 14 15 15 14 16 16 17 18 16 13 10 11 14 15 15
8 13 19 19 15 13 13 11 7 8 10 10 11 12 12 10 11 11 12 12 12 14 11 11 14 15 15 16 16 18 16 13 12 14 15 16 15 14
11 6 6 6 5 6 7 6 7 9 10 10 12 13 13 13 13 11 11 12 13 15 16 12 9 11 15 16 17 17 16 15 14 13 14 17 16 13
12 6 6 6 7 9 10 11 10 10 10 11 11 12 12 13 14 12 11 12 13 14 15 14 14 14 12 11 17 16 14 14 14 15 15 16 18 14
7 5 6 6 7 8 8 10 11 11 10 11 11 12 12 12 13 13 13 13 13 14 14 14 13 14 16 18 9 12 12 15 16 15 13 14 17 16
6 6 6 7 8 8 9 10 11 11 11 11 12 12 12 12 13 13 13 14 14 15 15 13 11 12 14 16 16 17 14 13 15 16 15 14 13 18
7 6 6 7 8 9 10 10 11 12 12 12 12 13 12 13 13 13 14 19 17 14 15 14 13 19 14 12 13 13 11 12 16 16 17 15 15 12
7 7 8 8 9 9 10 11 11 12 13 12 12 13 12 12 14 16 15 15 15 14 15 14 13 13 11 13 15 15 15 16 16 20 19 17 12 9
7 8 8 9 9 9 10 11 12 12 12 12 13 13 13 14 14 14 15 14 14 14 14 14 13 11 11 12 13 14 17 17 15 15 13 17 20 20
Wind_Direction
151 58 341 306 327 320 312 294 279 292 296 281 296 335 330 317 312 311 304 305 303 301 302 301 300 299 298 297 296 294 292 289 286 283 281 278 276 274
139 147 286 300 322 319 303 291 278 280 288 283 301 300 306 309 308 309 304 303 302 300 298 299 298 298 297 296 295 294 292 289 287 284 281 279 277 275
296 257 270 285 291 293 294 287 277 276 286 290 283 292 297 297 299 296 296 293 292 296 298 298 297 298 298 296 295 293 291 289 287 285 283 281 279 277
286 289 284 290 293 288 280 277 280 281 287 296 299 298 296 295 295 293 300 298 294 297 298 300 300 300 298 296 294 293 291 290 288 286 284 282 280 278
284 273 272 281 285 282 285 287 287 292 289 299 303 300 297 296 296 295 292 291 295 300 303 301 299 297 296 296 297 296 295 293 291 288 286 283 280 278
306 290 274 265 266 270 281 274 279 284 290 294 298 298 295 291 292 298 300 288 295 301 298 295 294 296 296 297 296 295 294 292 289 287 285 282 280 277
312 298 288 290 291 290 288 278 288 289 294 296 297 299 299 301 300 298 302 303 294 289 286 288 292 289 290 291 292 291 290 290 289 288 286 284 281 278
306 301 300 295 296 305 308 308 306 306 304 297 298 298 298 296 295 298 301 302 299 275 289 297 293 290 288 283 290 294 295 295 294 292 289 286 282 279
290 289 295 299 309 302 298 303 303 303 301 297 295 294 294 294 294 295 292 291 293 295 298 295 294 291 289 292 296 297 297 296 294 291 289 286 284 281
292 292 295 295 299 302 292 300 288 293 293 294 286 287 292 291 287 291 292 292 289 287 277 287 294 294 296 290 294 294 294 294 295 296 296 293 289 285
319 328 322 303 305 311 315 302 295 292 300 300 299 299 300 301 303 302 297 298 297 296 284 278 291 299 297 292 287 290 293 297 297 296 294 293 292 291
316 312 313 311 312 316 312 302 302 299 296 298 300 300 296 296 302 298 295 299 298 297 282 276 295 309 302 270 265 288 293 293 294 295 295 295 295 293
298 298 301 313 313 313 311 302 300 305 303 301 300 298 297 294 292 286 285 288 291 287 289 297 292 291 286 293 296 290 286 288 293 293 294 294 292 290
306 296 301 313 314 313 313 309 310 315 308 303 301 300 299 299 297 294 288 281 273 276 282 284 286 288 289 290 295 297 290 288 288 288 286 289 289 288
308 313 315 316 315 312 312 316 321 316 306 304 302 299 295 292 296 296 293 287 281 277 275 272 274 278 278 282 288 292 297 297 286 280 284 287 287 288
304 308 315 314 315 320 321 319 312 304 309 304 303 301 302 300 300 300 302 305 301 296 280 261 262 269 278 279 282 286 287 284 285 289 291 291 287 282
312 305 303 307 318 319 312 308 309 312 311 306 303 303 303 303 302 302 300 301 297 300 303 301 275 265 266 273 280 281 282 284 284 289 294 294 289 282
320 309 308 313 315 317 317 316 313 310 308 306 302 299 300 301 302 302 300 299 298 298 298 300 304 303 293 264 244 264 276 285 291 292 289 291 293 291
328 314 309 309 308 309 308 308 306 304 304 302 299 299 299 299 299 301 302 302 299 298 297 298 299 303 309 312 282 235 271 291 295 295 291 289 291 292
316 309 306 307 307 306 306 305 304 305 304 302 300 299 299 299 300 300 301 300 301 301 301 300 299 303 306 305 303 299 285 285 298 300 300 295 288 284
315 311 306 304 303 303 302 301 301 301 301 302 301 300 300 300 300 299 300 302 303 301 302 304 302 306 303 298 298 301 299 287 290 298 303 302 301 298
314 310 306 302 301 301 301 301 302 301 302 301 300 299 300 299 299 300 301 301 301 300 302 305 307 310 310 309 309 308 310 311 307 303 297 292 300 303
311 308 305 302 300 299 299 299 299 299 299 299 299 299 300 301 300 298 298 298 301 309 316 318 319 318 316 312 312 313 312 316 319 320 314 310 312 308
Height
1492 1491 1490 1489 1487 1485 1483 1481 1478 1470 1463 1461 1461 1460 1458 1454 1451 1446 1442 1438 1434 1430 1427 1423 1419 1415 1411 1408 1405 1402 1399 1396 1394 1392 1391 1390 1389 1388
1487 1487 1486 1484 1482 1480 1478 1476 1473 1469 1461 1456 1455 1453 1450 1447 1443 1439 1434 1430 1426 1422 1418 1415 1411 1406 1402 1398 1394 1391 1388 1386 1383 1382 1380 1379 1378 1377
1483 1482 1480 1479 1477 1475 1472 1470 1467 1463 1456 1449 1449 1446 1443 1439 1434 1431 1426 1422 1417 1414 1410 1406 1402 1398 1393 1389 1385 1381 1378 1375 1373 1371 1369 1368 1366 1365
1479 1477 1476 1474 1471 1469 1466 1463 1461 1458 1453 1445 1441 1439 1435 1431 1426 1422 1418 1414 1410 1405 1402 1398 1393 1388 1383 1379 1375 1371 1368 1365 1362 1360 1358 1356 1354 1353
1474 1472 1470 1468 1466 1463 1460 1458 1455 1452 1448 1442 1435 1431 1427 1424 1419 1415 1411 1406 1402 1397 1393 1388 1383 1378 1374 1370 1366 1361 1357 1354 1351 1348 1346 1344 1342 1341
1469 1467 1465 1463 1460 1458 1455 1452 1449 1445 1441 1436 1429 1424 1420 1417 1413 1408 1401 1397 1392 1387 1382 1378 1373 1369 1364 1359 1355 1350 1346 1342 1339 1337 1335 1333 1331 1329
1465 1462 1460 1458 1455 1453 1451 1447 1444 1439 1435 1430 1424 1419 1414 1411 1407 1402 1395 1388 1382 1378 1372 1368 1363 1357 1353 1348 1344 1339 1336 1332 1330 1327 1324 1322 1320 1318
1459 1457 1455 1452 1450 1448 1445 1442 1439 1435 1429 1425 1419 1415 1409 1405 1400 1396 1390 1382 1372 1370 1365 1358 1355 1348 1343 1338 1334 1330 1327 1323 1320 1316 1314 1311 1308 1306
1454 1451 1449 1447 1444 1441 1438 1435 1432 1429 1426 1421 1414 1409 1404 1399 1395 1389 1383 1377 1368 1363 1360 1349 1345 1338 1334 1329 1326 1321 1317 1312 1309 1306 1304 1301 1298 1296
1449 1447 1444 1441 1438 1435 1432 1428 1425 1422 1418 1414 1409 1404 1399 1394 1389 1384 1378 1370 1362 1357 1354 1345 1336 1330 1323 1318 1315 1311 1307 1303 1300 1297 1294 1290 1287 1284
1444 1442 1439 1436 1433 1431 1427 1422 1417 1414 1411 1407 1403 1398 1393 1388 1383 1377 1371 1364 1354 1348 1346 1340 1330 1322 1312 1306 1304 1301 1297 1294 1290 1286 1283 1279 1276 1273
1438 1436 1433 1431 1428 1425 1422 1417 1411 1407 1403 1398 1394 1390 1385 1380 1376 1372 1366 1359 1351 1341 1336 1332 1324 1318 1303 1294 1293 1290 1287 1283 1280 1276 1272 1269 1265 1262
1433 1430 1428 1425 1422 1419 1416 1412 1406 1402 1397 1392 1387 1382 1377 1373 1368 1364 1359 1353 1346 1337 1331 1327 1319 1313 1307 1291 1282 1281 1278 1273 1268 1264 1261 1258 1255 1251
1429 1425 1422 1420 1417 1414 1410 1406 1402 1398 1392 1386 1381 1376 1371 1365 1360 1356 1351 1345 1339 1331 1325 1321 1314 1308 1300 1290 1279 1271 1268 1265 1260 1255 1251 1247 1243 1239
1424 1421 1418 1415 1411 1408 1405 1401 1397 1392 1387 1381 1376 1370 1365 1359 1353 1348 1342 1336 1330 1325 1319 1314 1308 1301 1295 1287 1277 1268 1260 1255 1252 1247 1242 1236 1231 1226
1420 1416 1414 1410 1407 1404 1400 1396 1392 1387 1382 1377 1371 1365 1359 1353 1347 1341 1334 1327 1320 1314 1311 1306 1300 1294 1287 1280 1273 1263 1256 1250 1243 1239 1233 1226 1220 1215
1416 1412 1409 1406 1402 1398 1394 1391 1387 1382 1377 1372 1367 1360 1354 1348 1342 1336 1329 1322 1315 1307 1300 1297 1292 1286 1280 1274 1265 1257 1249 1243 1237 1231 1224 1215 1207 1203
1412 1408 1405 1402 1398 1394 1390 1385 1382 1377 1373 1367 1362 1356 1350 1343 1337 1331 1325 1318 1311 1303 1296 1289 1283 1275 1268 1262 1259 1250 1243 1236 1228 1222 1216 1208 1197 1190
1408 1405 1401 1398 1394 1390 1386 1382 1377 1373 1368 1363 1357 1352 1346 1339 1332 1326 1319 1313 1306 1299 1292 1285 1279 1272 1264 1253 1246 1245 1238 1228 1220 1213 1207 1200 1190 1181
1404 1401 1398 1394 1391 1387 1382 1378 1373 1368 1364 1358 1353 1347 1341 1335 1328 1321 1315 1308 1301 1294 1287 1281 1275 1270 1263 1254 1242 1233 1230 1223 1215 1206 1197 1190 1182 1174
1401 1397 1394 1391 1387 1383 1379 1375 1370 1365 1360 1354 1349 1343 1337 1331 1324 1317 1311 1304 1298 1291 1283 1277 1271 1266 1258 1249 1240 1229 1222 1217 1210 1201 1191 1183 1174 1166
1397 1394 1391 1388 1384 1380 1376 1371 1366 1361 1356 1351 1345 1339 1333 1327 1320 1313 1307 1300 1294 1288 1281 1274 1267 1260 1253 1246 1237 1227 1216 1209 1202 1195 1187 1180 1173 1163
1394 1391 1388 1385 1381 1377 1373 1368 1363 1358 1353 1347 1341 1335 1329 1322 1316 1310 1304 1298 1292 1286 1279 1271 1263 1256 1249 1242 1234 1225 1215 1206 1197 1188 1181 1174 1167 1160